Time,TemperatureF,DewpointF,PressureIn,WindDirection,WindDirectionDegrees,WindSpeedMPH,WindSpeedGustMPH,Humidity,HourlyPrecipIn,Conditions,Clouds,dailyrainin,SolarRadiationWatts/m^2,SoftwareType,DateUTC
2013-05-19 00:02:00,36.0,32.0,30.24,NNW,331,10.0,24.0,86,0.00,,,0.02,0.000000,,2013-05-19 06:02:00,
2013-05-19 00:11:00,36.0,32.0,30.24,NNW,331,10.0,24.0,86,0.00,,,0.02,0.000000,,2013-05-19 06:11:00,
2013-05-19 00:42:00,33.0,28.0,30.24,NW,316,8.0,12.0,82,0.01,,,0.03,0.000000,,2013-05-19 06:42:00,
2013-05-19 00:52:00,33.0,28.0,30.24,NW,316,8.0,12.0,82,0.01,,,0.03,0.000000,,2013-05-19 06:52:00,
2013-05-19 01:01:00,33.0,28.0,30.24,NW,316,8.0,12.0,82,0.01,,,0.03,0.000000,,2013-05-19 07:01:00,
2013-05-19 01:11:00,33.0,28.0,30.24,NW,316,8.0,12.0,82,0.01,,,0.03,0.000000,,2013-05-19 07:11:00,
2013-05-19 01:42:00,33.0,29.0,30.23,NNW,340,2.0,10.0,84,0.00,,,0.03,0.000000,,2013-05-19 07:42:00,
2013-05-19 01:52:00,33.0,29.0,30.23,NNW,340,2.0,10.0,84,0.00,,,0.03,0.000000,,2013-05-19 07:52:00,
2013-05-19 02:01:00,33.0,29.0,30.23,NNW,340,2.0,10.0,84,0.00,,,0.03,0.000000,,2013-05-19 08:01:00,
2013-05-19 02:11:00,33.0,29.0,30.23,NNW,340,2.0,10.0,84,0.00,,,0.03,0.000000,,2013-05-19 08:11:00,
2013-05-19 02:32:00,35.0,32.0,30.23,ENE,76,4.0,7.0,89,0.00,,,0.03,0.000000,,2013-05-19 08:32:00,
2013-05-19 02:42:00,35.0,32.0,30.23,ENE,76,4.0,7.0,89,0.00,,,0.03,0.000000,,2013-05-19 08:42:00,
2013-05-19 02:52:00,35.0,32.0,30.23,ENE,76,4.0,7.0,89,0.00,,,0.03,0.000000,,2013-05-19 08:52:00,
2013-05-19 03:02:00,35.0,32.0,30.23,ENE,76,4.0,7.0,89,0.00,,,0.03,0.000000,,2013-05-19 09:02:00,
2013-05-19 03:11:00,35.0,32.0,30.23,ENE,76,4.0,7.0,89,0.00,,,0.03,0.000000,,2013-05-19 09:11:00,
2013-05-19 03:12:00,34.0,29.0,30.22,SW,227,0.0,4.0,81,0.00,,,0.03,0.000000,,2013-05-19 09:12:00,
2013-05-19 03:33:00,34.0,29.0,30.22,SW,227,0.0,4.0,81,0.00,,,0.03,0.000000,,2013-05-19 09:33:00,
2013-05-19 03:43:00,34.0,29.0,30.22,SW,227,0.0,4.0,81,0.00,,,0.03,0.000000,,2013-05-19 09:43:00,
2013-05-19 03:53:00,34.0,29.0,30.22,SW,227,0.0,4.0,81,0.00,,,0.03,0.000000,,2013-05-19 09:53:00,
2013-05-19 04:02:00,34.0,29.0,30.22,SW,227,0.0,4.0,81,0.00,,,0.03,0.000000,,2013-05-19 10:02:00,
2013-05-19 04:33:00,32.0,29.0,30.22,North,349,0.0,4.0,87,0.00,,,0.03,0.000000,,2013-05-19 10:33:00,
2013-05-19 04:42:00,32.0,29.0,30.22,North,349,0.0,4.0,87,0.00,,,0.03,0.000000,,2013-05-19 10:42:00,
2013-05-19 04:52:00,32.0,29.0,30.22,North,349,0.0,4.0,87,0.00,,,0.03,0.000000,,2013-05-19 10:52:00,
2013-05-19 05:02:00,32.0,29.0,30.22,North,349,0.0,4.0,87,0.00,,,0.03,0.000000,,2013-05-19 11:02:00,
2013-05-19 05:11:00,32.0,29.0,30.22,North,349,0.0,4.0,87,0.00,,,0.03,0.000000,,2013-05-19 11:11:00,
2013-05-19 05:32:00,33.0,29.0,30.21,NNW,342,1.0,4.0,85,0.00,,,0.03,0.000000,,2013-05-19 11:32:00,
2013-05-19 05:42:00,33.0,29.0,30.21,NNW,342,1.0,4.0,85,0.00,,,0.03,0.000000,,2013-05-19 11:42:00,
2013-05-19 05:52:00,33.0,29.0,30.21,NNW,342,1.0,4.0,85,0.00,,,0.03,0.000000,,2013-05-19 11:52:00,
2013-05-19 06:01:00,33.0,29.0,30.21,NNW,342,1.0,4.0,85,0.00,,,0.03,0.000000,,2013-05-19 12:01:00,
2013-05-19 06:11:00,33.0,29.0,30.21,NNW,342,1.0,4.0,85,0.00,,,0.03,0.000000,,2013-05-19 12:11:00,
2013-05-19 06:32:00,34.0,30.0,30.20,NNW,332,1.0,4.0,85,0.00,,,0.03,1.000000,,2013-05-19 12:32:00,
2013-05-19 06:42:00,34.0,30.0,30.20,NNW,332,1.0,4.0,85,0.00,,,0.03,1.000000,,2013-05-19 12:42:00,
2013-05-19 06:52:00,34.0,30.0,30.20,NNW,332,1.0,4.0,85,0.00,,,0.03,1.000000,,2013-05-19 12:52:00,
2013-05-19 07:01:00,34.0,30.0,30.20,NNW,332,1.0,4.0,85,0.00,,,0.03,1.000000,,2013-05-19 13:01:00,
2013-05-19 07:11:00,34.0,30.0,30.20,NNW,332,1.0,4.0,85,0.00,,,0.03,1.000000,,2013-05-19 13:11:00,
2013-05-19 07:42:00,37.0,31.0,30.21,WNW,295,0.0,5.0,80,0.00,,,0.03,103.000000,,2013-05-19 13:42:00,
2013-05-19 07:52:00,37.0,31.0,30.21,WNW,295,0.0,5.0,80,0.00,,,0.03,103.000000,,2013-05-19 13:52:00,
2013-05-19 08:02:00,37.0,31.0,30.21,WNW,295,0.0,5.0,80,0.00,,,0.03,103.000000,,2013-05-19 14:02:00,
2013-05-19 08:11:00,37.0,31.0,30.21,WNW,295,0.0,5.0,80,0.00,,,0.03,103.000000,,2013-05-19 14:11:00,
2013-05-19 08:42:00,39.0,33.0,30.21,NNW,333,5.0,7.0,80,0.00,,,0.03,194.000000,,2013-05-19 14:42:00,
2013-05-19 08:52:00,39.0,33.0,30.21,NNW,333,5.0,7.0,80,0.00,,,0.03,194.000000,,2013-05-19 14:52:00,
2013-05-19 09:01:00,39.0,33.0,30.21,NNW,333,5.0,7.0,80,0.00,,,0.03,194.000000,,2013-05-19 15:01:00,
2013-05-19 09:11:00,39.0,33.0,30.21,NNW,333,5.0,7.0,80,0.00,,,0.03,194.000000,,2013-05-19 15:11:00,
2013-05-19 09:12:00,37.0,34.0,30.22,WNW,290,4.0,8.0,87,0.00,,,0.03,265.000000,,2013-05-19 15:12:00,
2013-05-19 09:43:00,37.0,34.0,30.22,WNW,290,4.0,8.0,87,0.00,,,0.03,265.000000,,2013-05-19 15:43:00,
2013-05-19 09:53:00,37.0,34.0,30.22,WNW,290,4.0,8.0,87,0.00,,,0.03,265.000000,,2013-05-19 15:53:00,
2013-05-19 10:03:00,37.0,34.0,30.22,WNW,290,4.0,8.0,87,0.00,,,0.03,265.000000,,2013-05-19 16:03:00,
2013-05-19 10:12:00,44.0,37.0,30.22,WNW,284,5.0,9.0,76,0.00,,,0.03,527.000000,,2013-05-19 16:12:00,
2013-05-19 10:42:00,44.0,37.0,30.22,WNW,284,5.0,9.0,76,0.00,,,0.03,527.000000,,2013-05-19 16:42:00,
2013-05-19 10:52:00,44.0,37.0,30.22,WNW,284,5.0,9.0,76,0.00,,,0.03,527.000000,,2013-05-19 16:52:00,
2013-05-19 11:02:00,44.0,37.0,30.22,WNW,284,5.0,9.0,76,0.00,,,0.03,527.000000,,2013-05-19 17:02:00,
2013-05-19 11:12:00,42.0,38.0,30.20,WNW,293,8.0,15.0,86,0.00,,,0.01,552.000000,,2013-05-19 17:12:00,
2013-05-19 11:43:00,42.0,38.0,30.20,WNW,293,8.0,15.0,86,0.00,,,0.01,552.000000,,2013-05-19 17:43:00,
2013-05-19 11:52:00,42.0,38.0,30.20,WNW,293,8.0,15.0,86,0.00,,,0.01,552.000000,,2013-05-19 17:52:00,
2013-05-19 12:02:00,42.0,38.0,30.20,WNW,293,8.0,15.0,86,0.00,,,0.01,552.000000,,2013-05-19 18:02:00,
2013-05-19 12:32:00,45.0,32.0,30.22,WNW,293,8.0,16.0,59,0.00,,,0.01,833.000000,,2013-05-19 18:32:00,
2013-05-19 12:43:00,45.0,32.0,30.22,WNW,293,8.0,16.0,59,0.00,,,0.01,833.000000,,2013-05-19 18:43:00,
2013-05-19 12:53:00,45.0,32.0,30.22,WNW,293,8.0,16.0,59,0.00,,,0.01,833.000000,,2013-05-19 18:53:00,
2013-05-19 13:01:00,45.0,32.0,30.22,WNW,293,8.0,16.0,59,0.00,,,0.01,833.000000,,2013-05-19 19:01:00,
2013-05-19 13:11:00,45.0,32.0,30.22,WNW,293,8.0,16.0,59,0.00,,,0.01,833.000000,,2013-05-19 19:11:00,
2013-05-19 13:32:00,50.0,35.0,30.19,NW,326,6.0,15.0,56,0.00,,,0.01,891.000000,,2013-05-19 19:32:00,
2013-05-19 13:42:00,50.0,35.0,30.19,NW,326,6.0,15.0,56,0.00,,,0.01,891.000000,,2013-05-19 19:42:00,
2013-05-19 13:52:00,50.0,35.0,30.19,NW,326,6.0,15.0,56,0.00,,,0.01,891.000000,,2013-05-19 19:52:00,
2013-05-19 14:02:00,50.0,35.0,30.19,NW,326,6.0,15.0,56,0.00,,,0.01,891.000000,,2013-05-19 20:02:00,
2013-05-19 14:42:00,43.0,32.0,30.20,NNW,333,9.0,36.0,64,-99.99,,,0.03,313.000000,,2013-05-19 20:42:00,
2013-05-19 14:52:00,43.0,32.0,30.20,NNW,333,9.0,36.0,64,-99.99,,,0.03,313.000000,,2013-05-19 20:52:00,
2013-05-19 15:02:00,43.0,32.0,30.20,NNW,333,9.0,36.0,64,-99.99,,,0.03,313.000000,,2013-05-19 21:02:00,
2013-05-19 15:11:00,43.0,32.0,30.20,NNW,333,9.0,36.0,64,-99.99,,,0.03,313.000000,,2013-05-19 21:11:00,
2013-05-19 15:12:00,41.0,26.0,30.21,NW,326,11.0,26.0,55,0.02,,,0.05,529.000000,,2013-05-19 21:12:00,
2013-05-19 15:32:00,41.0,26.0,30.21,NW,326,11.0,26.0,55,0.02,,,0.05,529.000000,,2013-05-19 21:32:00,
2013-05-19 15:43:00,41.0,26.0,30.21,NW,326,11.0,26.0,55,0.02,,,0.05,529.000000,,2013-05-19 21:43:00,
2013-05-19 15:53:00,41.0,26.0,30.21,NW,326,11.0,26.0,55,0.02,,,0.05,529.000000,,2013-05-19 21:53:00,
2013-05-19 16:02:00,41.0,26.0,30.21,NW,326,11.0,26.0,55,0.02,,,0.05,529.000000,,2013-05-19 22:02:00,
2013-05-19 16:42:00,52.0,29.0,30.19,West,280,5.0,12.0,41,0.00,,,0.05,895.000000,,2013-05-19 22:42:00,
2013-05-19 16:53:00,52.0,29.0,30.19,West,280,5.0,12.0,41,0.00,,,0.05,895.000000,,2013-05-19 22:53:00,
2013-05-19 17:02:00,52.0,29.0,30.19,West,280,5.0,12.0,41,0.00,,,0.05,895.000000,,2013-05-19 23:02:00,
2013-05-19 17:42:00,48.0,27.0,30.20,NW,316,7.0,15.0,43,-99.99,,,0.05,576.000000,,2013-05-19 23:42:00,
2013-05-19 17:52:00,48.0,27.0,30.20,NW,316,7.0,15.0,43,-99.99,,,0.05,576.000000,,2013-05-19 23:52:00,
2013-05-19 18:02:00,48.0,27.0,30.20,NW,316,7.0,15.0,43,-99.99,,,0.05,576.000000,,2013-05-20 00:02:00,
2013-05-19 18:42:00,41.0,27.0,30.19,NW,316,12.0,30.0,57,-99.99,,,-99.99,253.000000,,2013-05-20 00:42:00,
2013-05-19 18:52:00,41.0,27.0,30.19,NW,316,12.0,30.0,57,-99.99,,,-99.99,253.000000,,2013-05-20 00:52:00,
2013-05-19 19:01:00,41.0,27.0,30.19,NW,316,12.0,30.0,57,-99.99,,,-99.99,253.000000,,2013-05-20 01:01:00,
2013-05-19 19:11:00,41.0,27.0,30.19,NW,316,12.0,30.0,57,-99.99,,,-99.99,253.000000,,2013-05-20 01:11:00,
2013-05-19 19:32:00,42.0,27.0,30.19,NW,317,7.0,22.0,55,0.00,,,0.05,103.000000,,2013-05-20 01:32:00,
2013-05-19 19:42:00,42.0,27.0,30.19,NW,317,7.0,22.0,55,0.00,,,0.05,103.000000,,2013-05-20 01:42:00,
2013-05-19 19:52:00,42.0,27.0,30.19,NW,317,7.0,22.0,55,0.00,,,0.05,103.000000,,2013-05-20 01:52:00,
2013-05-19 20:01:00,42.0,27.0,30.19,NW,317,7.0,22.0,55,0.00,,,0.05,103.000000,,2013-05-20 02:01:00,
2013-05-19 20:11:00,42.0,27.0,30.19,NW,317,7.0,22.0,55,0.00,,,0.05,103.000000,,2013-05-20 02:11:00,
2013-05-19 20:32:00,39.0,27.0,30.22,NNW,348,4.0,18.0,61,0.00,,,0.05,32.000000,,2013-05-20 02:32:00,
2013-05-19 20:42:00,39.0,27.0,30.22,NNW,348,4.0,18.0,61,0.00,,,0.05,32.000000,,2013-05-20 02:42:00,
2013-05-19 20:52:00,39.0,27.0,30.22,NNW,348,4.0,18.0,61,0.00,,,0.05,32.000000,,2013-05-20 02:52:00,
2013-05-19 21:01:00,39.0,27.0,30.22,NNW,348,4.0,18.0,61,0.00,,,0.05,32.000000,,2013-05-20 03:01:00,
2013-05-19 21:11:00,39.0,27.0,30.22,NNW,348,4.0,18.0,61,0.00,,,0.05,32.000000,,2013-05-20 03:11:00,
2013-05-19 21:12:00,37.0,26.0,30.22,NNW,329,12.0,18.0,65,0.00,,,0.05,1.000000,,2013-05-20 03:12:00,
2013-05-19 21:33:00,37.0,26.0,30.22,NNW,329,12.0,18.0,65,0.00,,,0.05,1.000000,,2013-05-20 03:33:00,
2013-05-19 21:43:00,37.0,26.0,30.22,NNW,329,12.0,18.0,65,0.00,,,0.05,1.000000,,2013-05-20 03:43:00,
2013-05-19 21:52:00,37.0,26.0,30.22,NNW,329,12.0,18.0,65,0.00,,,0.05,1.000000,,2013-05-20 03:52:00,
2013-05-19 22:02:00,37.0,26.0,30.22,NNW,329,12.0,18.0,65,0.00,,,0.05,1.000000,,2013-05-20 04:02:00,
2013-05-19 22:33:00,35.0,24.0,30.25,NNW,335,8.0,17.0,65,0.00,,,0.05,0.000000,,2013-05-20 04:33:00,
2013-05-19 22:43:00,35.0,24.0,30.25,NNW,335,8.0,17.0,65,0.00,,,0.05,0.000000,,2013-05-20 04:43:00,
2013-05-19 22:52:00,35.0,24.0,30.25,NNW,335,8.0,17.0,65,0.00,,,0.05,0.000000,,2013-05-20 04:52:00,
2013-05-19 23:02:00,35.0,24.0,30.25,NNW,335,8.0,17.0,65,0.00,,,0.05,0.000000,,2013-05-20 05:02:00,
2013-05-19 23:11:00,35.0,24.0,30.25,NNW,335,8.0,17.0,65,0.00,,,0.05,0.000000,,2013-05-20 05:11:00,
2013-05-19 23:32:00,35.0,28.0,30.24,WNW,293,10.0,16.0,76,0.00,,,0.05,0.000000,,2013-05-20 05:32:00,
2013-05-19 23:42:00,35.0,28.0,30.24,WNW,293,10.0,16.0,76,0.00,,,0.05,0.000000,,2013-05-20 05:42:00,
2013-05-19 23:52:00,35.0,28.0,30.24,WNW,293,10.0,16.0,76,0.00,,,0.05,0.000000,,2013-05-20 05:52:00,